When you browse on this site, cookies collect data to enhance your experience and personalize the content and advertising you see.
Visit our Privacy Policy to learn more. By continuing to use the site, you agree to this use of cookies and data.

Stündliche Wetter Jacala

Heute, 4 August, Dienstag

Zeit Temperatur Niederschläge Wind Luftdruck Luftfeuchtigkeit
00:00 +15°C° 0 mm 0 m/S 634 mmHg 92%
01:00 +15°C° 0 mm 0 m/S 633 mmHg 91%
02:00 +15°C° 0 mm 0 m/S 633 mmHg 91%
03:00 +15°C° 0 mm 0 m/S 633 mmHg 91%
04:00 +15°C° 0 mm 0 m/S 633 mmHg 91%
05:00 +15°C° 0 mm 0 m/S 633 mmHg 91%
06:00 +17°C° 0 mm 0 m/S 634 mmHg 83%
07:00 +19°C° 0 mm 0 m/S 635 mmHg 74%
08:00 +22°C° 0 mm 0 m/S 636 mmHg 65%
09:00 +25°C° 0 mm 1 m/S 636 mmHg 61%
10:00 +26°C° 0 mm 1 m/S 636 mmHg 56%
11:00 +27°C° 0 mm 2 m/S 636 mmHg 51%
12:00 +27°C° 0.1 mm 2 m/S 636 mmHg 55%
13:00 +26°C° 0.1 mm 3 m/S 635 mmHg 59%
14:00 +26°C° 0.1 mm 3 m/S 634 mmHg 62%
15:00 +25°C° 0.4 mm 3 m/S 634 mmHg 68%
16:00 +24°C° 0.4 mm 3 m/S 633 mmHg 73%
17:00 +23°C° 0.4 mm 2 m/S 633 mmHg 79%
18:00 +20°C° 0.1 mm 2 m/S 633 mmHg 84%
19:00 +20°C° 0.1 mm 1 m/S 633 mmHg 90%
20:00 +19°C° 0.1 mm 1 m/S 633 mmHg 95%
21:00 +18°C° 0 mm 1 m/S 633 mmHg 95%
22:00 +18°C° 0 mm 1 m/S 633 mmHg 95%
23:00 +18°C° 0 mm 1 m/S 633 mmHg 96%

Morgen, 5 August, Mittwoch

Zeit Temperatur Niederschläge Wind Luftdruck Luftfeuchtigkeit
00:00 +18°C° 0 mm 1 m/S 633 mmHg 95%
01:00 +18°C° 0 mm 1 m/S 633 mmHg 94%
02:00 +16°C° 0 mm 1 m/S 632 mmHg 94%
03:00 +16°C° 0 mm 1 m/S 632 mmHg 93%
04:00 +16°C° 0 mm 1 m/S 632 mmHg 93%
05:00 +15°C° 0 mm 0 m/S 632 mmHg 93%
06:00 +17°C° 0 mm 0 m/S 633 mmHg 85%
07:00 +19°C° 0 mm 0 m/S 634 mmHg 77%
08:00 +21°C° 0 mm 0 m/S 635 mmHg 69%
09:00 +25°C° 0 mm 1 m/S 635 mmHg 62%
10:00 +26°C° 0 mm 1 m/S 635 mmHg 55%
11:00 +27°C° 0 mm 2 m/S 636 mmHg 48%
12:00 +27°C° 0 mm 2 m/S 635 mmHg 51%
13:00 +27°C° 0 mm 3 m/S 634 mmHg 53%
14:00 +27°C° 0 mm 3 m/S 634 mmHg 56%
15:00 +25°C° 0.2 mm 3 m/S 633 mmHg 62%
16:00 +24°C° 0.2 mm 3 m/S 633 mmHg 68%
17:00 +23°C° 0.2 mm 2 m/S 632 mmHg 74%
18:00 +20°C° 0.1 mm 2 m/S 632 mmHg 81%
19:00 +20°C° 0.1 mm 1 m/S 632 mmHg 88%
20:00 +18°C° 0.1 mm 1 m/S 633 mmHg 95%
21:00 +18°C° 0 mm 1 m/S 633 mmHg 95%
22:00 +18°C° 0 mm 1 m/S 633 mmHg 95%
23:00 +15°C° 0 mm 0 m/S 633 mmHg 95%

übermorgen, 6 August, Donnerstag

Zeit Temperatur Niederschläge Wind Luftdruck Luftfeuchtigkeit
00:00 +15°C° 0 mm 0 m/S 632 mmHg 95%
01:00 +15°C° 0 mm 0 m/S 632 mmHg 94%
02:00 +15°C° 0 mm 0 m/S 632 mmHg 94%
03:00 +15°C° 0 mm 0 m/S 632 mmHg 94%
04:00 +15°C° 0 mm 0 m/S 632 mmHg 94%
05:00 +14°C° 0 mm 0 m/S 632 mmHg 93%
06:00 +17°C° 0 mm 0 m/S 632 mmHg 86%
07:00 +19°C° 0 mm 0 m/S 633 mmHg 79%
08:00 +21°C° 0 mm 0 m/S 634 mmHg 72%
09:00 +24°C° 0 mm 1 m/S 635 mmHg 64%
10:00 +26°C° 0 mm 1 m/S 635 mmHg 57%
11:00 +27°C° 0 mm 2 m/S 635 mmHg 50%
12:00 +27°C° 0.2 mm 3 m/S 634 mmHg 54%
13:00 +26°C° 0.2 mm 3 m/S 633 mmHg 58%
14:00 +26°C° 0.2 mm 3 m/S 633 mmHg 62%
15:00 +25°C° 0.4 mm 3 m/S 632 mmHg 69%
16:00 +23°C° 0.4 mm 2 m/S 632 mmHg 75%
17:00 +21°C° 0.4 mm 2 m/S 632 mmHg 82%
18:00 +21°C° 0.1 mm 1 m/S 632 mmHg 87%
19:00 +20°C° 0.1 mm 1 m/S 632 mmHg 91%
20:00 +18°C° 0.1 mm 1 m/S 632 mmHg 96%
21:00 +16°C° 0.2 mm 0 m/S 633 mmHg 96%
22:00 +16°C° 0.2 mm 0 m/S 633 mmHg 97%
23:00 +16°C° 0.2 mm 0 m/S 633 mmHg 97%

7 August, Freitag

Zeit Temperatur Niederschläge Wind Luftdruck Luftfeuchtigkeit
00:00 +16°C° 0.1 mm 0 m/S 633 mmHg 97%
01:00 +16°C° 0.1 mm 0 m/S 632 mmHg 96%
02:00 +16°C° 0.1 mm 0 m/S 632 mmHg 96%
03:00 +16°C° 0.2 mm 0 m/S 632 mmHg 96%
04:00 +16°C° 0.2 mm 0 m/S 632 mmHg 96%
05:00 +15°C° 0.2 mm 0 m/S 632 mmHg 96%
06:00 +17°C° 0.1 mm 0 m/S 633 mmHg 90%
07:00 +20°C° 0.1 mm 1 m/S 634 mmHg 85%
08:00 +22°C° 0.1 mm 1 m/S 634 mmHg 79%
09:00 +23°C° 0.3 mm 1 m/S 634 mmHg 73%
10:00 +25°C° 0.3 mm 2 m/S 635 mmHg 66%
11:00 +26°C° 0.3 mm 2 m/S 635 mmHg 60%
12:00 +26°C° 1 mm 2 m/S 634 mmHg 62%
13:00 +25°C° 1 mm 2 m/S 634 mmHg 65%
14:00 +25°C° 1 mm 3 m/S 633 mmHg 68%
15:00 +24°C° 0.7 mm 2 m/S 633 mmHg 74%
16:00 +23°C° 0.7 mm 2 m/S 633 mmHg 79%
17:00 +21°C° 0.7 mm 2 m/S 632 mmHg 84%
18:00 +20°C° 0.4 mm 2 m/S 633 mmHg 88%
19:00 +20°C° 0.4 mm 1 m/S 633 mmHg 92%
20:00 +18°C° 0.4 mm 1 m/S 633 mmHg 97%
21:00 +18°C° 0.2 mm 1 m/S 633 mmHg 96%
22:00 +18°C° 0.2 mm 1 m/S 633 mmHg 96%
23:00 +18°C° 0.2 mm 1 m/S 634 mmHg 96%

8 August, Samstag

Zeit Temperatur Niederschläge Wind Luftdruck Luftfeuchtigkeit
00:00 +18°C° 0 mm 1 m/S 633 mmHg 95%
01:00 +15°C° 0 mm 0 m/S 633 mmHg 95%
02:00 +15°C° 0 mm 0 m/S 632 mmHg 95%
03:00 +15°C° 0 mm 0 m/S 633 mmHg 95%
04:00 +15°C° 0 mm 0 m/S 633 mmHg 95%
05:00 +15°C° 0 mm 0 m/S 633 mmHg 94%
06:00 +16°C° 0 mm 0 m/S 634 mmHg 89%
07:00 +20°C° 0 mm 1 m/S 635 mmHg 83%
08:00 +21°C° 0 mm 1 m/S 635 mmHg 78%
09:00 +23°C° 0 mm 1 m/S 636 mmHg 68%
10:00 +25°C° 0 mm 2 m/S 636 mmHg 58%
11:00 +26°C° 0 mm 2 m/S 636 mmHg 48%
12:00 +26°C° 0 mm 3 m/S 636 mmHg 50%
13:00 +26°C° 0 mm 3 m/S 635 mmHg 51%
14:00 +26°C° 0 mm 4 m/S 634 mmHg 53%
15:00 +25°C° 0.1 mm 3 m/S 634 mmHg 60%
16:00 +22°C° 0.1 mm 3 m/S 634 mmHg 67%
17:00 +21°C° 0.1 mm 3 m/S 633 mmHg 75%
18:00 +20°C° 0.2 mm 2 m/S 634 mmHg 82%
19:00 +19°C° 0.2 mm 1 m/S 634 mmHg 89%
20:00 +18°C° 0.2 mm 1 m/S 634 mmHg 96%
21:00 +18°C° 0.1 mm 1 m/S 634 mmHg 96%
22:00 +16°C° 0.1 mm 1 m/S 634 mmHg 96%
23:00 +16°C° 0.1 mm 1 m/S 634 mmHg 96%

9 August, Sonntag

Zeit Temperatur Niederschläge Wind Luftdruck Luftfeuchtigkeit
00:00 +15°C° 0 mm 0 m/S 634 mmHg 96%
01:00 +15°C° 0 mm 0 m/S 634 mmHg 95%
02:00 +15°C° 0 mm 0 m/S 633 mmHg 95%
03:00 +15°C° 0 mm 0 m/S 633 mmHg 94%
04:00 +14°C° 0 mm 0 m/S 633 mmHg 94%
05:00 +14°C° 0 mm 0 m/S 633 mmHg 94%
06:00 +16°C° 0 mm 0 m/S 634 mmHg 88%
07:00 +17°C° 0 mm 0 m/S 635 mmHg 81%
08:00 +21°C° 0 mm 1 m/S 635 mmHg 75%
09:00 +22°C° 0 mm 1 m/S 636 mmHg 67%
10:00 +24°C° 0 mm 1 m/S 636 mmHg 59%
11:00 +25°C° 0 mm 2 m/S 636 mmHg 51%
12:00 +25°C° 0 mm 2 m/S 635 mmHg 53%
13:00 +25°C° 0 mm 3 m/S 635 mmHg 54%
14:00 +25°C° 0 mm 3 m/S 634 mmHg 56%
15:00 +24°C° 0.1 mm 3 m/S 634 mmHg 62%
16:00 +23°C° 0.1 mm 2 m/S 633 mmHg 68%
17:00 +21°C° 0.1 mm 2 m/S 633 mmHg 74%
18:00 +20°C° 0.1 mm 2 m/S 633 mmHg 81%
19:00 +20°C° 0.1 mm 1 m/S 633 mmHg 87%
20:00 +18°C° 0.1 mm 1 m/S 633 mmHg 93%
21:00 +18°C° 0.1 mm 1 m/S 634 mmHg 94%
22:00 +18°C° 0.1 mm 1 m/S 634 mmHg 95%
23:00 +16°C° 0.1 mm 0 m/S 634 mmHg 96%
Mehr zeigen